Regional Weather Roundup
Issued by NWS

Home | Current Version | Previous Version | Graphics & Text | Print | Product List | Glossary On
Versions: 1 2 3 4 5 6 7 8 9 10 11 12 13 14 15 16 17 18 19 20 21 22 23 24 25 26 27 28 29 30 31 32 33 34 35 36 37 38 39 40 41 42 43 44 45 46 47 48 49 50
000
ASUS45 KSLC 250610
RWRUT

UTAH REGIONAL WEATHER ROUNDUP
NATIONAL WEATHER SERVICE SALT LAKE CITY UT
1200 AM MDT SUN JUN 25 2017

UTZ001>011-023>025-250700-

NORTHERN UTAH

CITY           SKY/WX    TMP DP  RH WIND       PRES   REMARKS
BRIGHAM CITY   CLEAR     72  37  28 W3        30.17F
HILL AFB       CLEAR     68  37  32 E12       30.19S
LOGAN          CLEAR     65  45  48 S7        30.20R
OGDEN          CLEAR     67  40  37 S6        30.16S
SALT LAKE CITY CLEAR     72  31  22 SW3       30.14S
TOOELE VALLEY  CLEAR     54  32  43 S9        30.16S
WENDOVER         N/A     75  26  16 CALM      30.16S
HEBER CITY     CLEAR     50  37  62 E5        30.25S
WEST JORDAN    CLEAR     65  38  37 W7        30.18S

$$

UTZ011>015-024>027-250700-

CENTRAL/NORTHEAST UTAH

CITY           SKY/WX    TMP DP  RH WIND       PRES   REMARKS
PROVO AIRPORT  CLEAR     62  46  55 S5        30.18R
MOAB/CANYONLAN CLEAR     82  21  10 NE14      30.07R
DELTA          CLEAR     68  28  22 N6        30.16S
PRICE          CLEAR     67  28  23 N8        30.23R
RICHFIELD      CLEAR     61  32  33 SW1       30.23R
VERNAL         CLEAR     60  39  45 NW3       30.21R

$$

UTZ013>016-019>022-027-250700-

SOUTHERN UTAH

CITY           SKY/WX    TMP DP  RH WIND       PRES   REMARKS
BRYCE CANYON   PTCLDY    48  21  34 SW3       30.37S
CEDAR CITY     CLEAR     60  27  28 N7        30.19R
MILFORD        CLEAR     67  16  14 N7        30.17R
ST GEORGE      CLEAR     96  21   6 NE24G30   29.88S
HANKSVILLE     CLEAR     79  23  12 N9        30.11R
KANAB          CLEAR     79  19  11 NE10      30.14R
BLANDING       CLEAR     70  14  12 N10       30.25S

$$

REGIONAL REPORTS     COLORADO/ARIZONA

CITY           SKY/WX    TMP DP  RH WIND       PRES   REMARKS
CRAIG, CO      CLEAR     50  39  66 SE5       30.31S
GRAND JUNCTION CLEAR     78  26  14 SW5       30.14R
RIFLE, CO      CLEAR     62  29  28 E9        30.24R
MONTROSE, CO   CLEAR     64  34  32 SE6       30.23R
CORTEZ, CO     CLEAR     56  25  30 E10       30.20R
COLORADO CITY    N/A     81  23  12 CALM      30.11S
PAGE, AZ       CLEAR     84  33  16 S3        30.03R
GRAND CANYON   PTCLDY    60  28  29 CALM      30.26R
KINGMAN, AZ    PTCLDY    85  28  12 SE12      29.93S
FLAGSTAFF, AZ  CLOUDY    70  30  22 CALM      30.28S

$$

REGIONAL REPORTS    NEVADA/IDAHO/WYOMING

CITY           SKY/WX    TMP DP  RH WIND       PRES   REMARKS
LAS VEGAS, NV  PTCLDY   102  29   7 SW13G22   29.80R HX  95
ELY, NY        CLEAR     57  21  24 S6        30.27R
ELKO, NV       CLEAR     71  29  21 NE8       30.21R
POCATELLO, ID  CLEAR     57  44  62 E3        30.21S
BURLEY, ID     CLEAR     58  46  64 S3        30.16S
FORT BRIDGER,    N/A     59  32  36 W9        30.39S
EVANSTON, WY   CLEAR     60  37  42 E5        30.37S
ROCK SPRINGS,  CLEAR     57  32  38 NE10      30.34R
KEMMERER, WY     N/A     54  36  50 NW13      30.38S

$$



USA.gov is the U.S. government's official web portal to all federal, state and local government web resources and services.